ENT8XJ LGKO-EFPO

Flight info

Callsign ENT8XJ
Flight time 3h 48m
Altitude 36000
Route LARKI UL609 MES UG18 GIKAS UN133 ATFIR N133 LOMOS DCT NARKA DCT PODAN/N0457F370 M857 BOKSU DCT GUNTA/N0467F380 DCT PETOT DCT XORMU
Aircraft B738/M-SDE2E3FGHIRWXY/LB1

Departure

Time 2026-04-28 05:37
Airport Kos International Airport "Ippokratis" (LGKO)

Arrival

Time 2026-04-28 09:25
Airport Pori Airport (EFPO)
Time Latitude Longitude Altitude Speed Heading
2026-04-28 05:18 36.80079 27.08983 410 ft 0 kts 58°
2026-04-28 05:29 36.80077 27.08980 407 ft 2 kts 58°
2026-04-28 05:29 36.80063 27.08953 407 ft 4 kts 58°
2026-04-28 05:29 36.80052 27.08931 409 ft 4 kts 57°
2026-04-28 05:29 36.80041 27.08908 412 ft 4 kts 102°
2026-04-28 05:30 36.80055 27.08889 409 ft 3 kts 148°
2026-04-28 05:30 36.80077 27.08871 407 ft 3 kts 148°
2026-04-28 05:30 36.80080 27.08869 407 ft 0 kts 148°
2026-04-28 05:32 36.80070 27.08877 413 ft 3 kts 148°
2026-04-28 05:32 36.80038 27.08902 413 ft 8 kts 148°
2026-04-28 05:33 36.79974 27.08952 413 ft 13 kts 148°
2026-04-28 05:33 36.79872 27.08982 408 ft 18 kts 178°
2026-04-28 05:33 36.79732 27.08987 414 ft 22 kts 178°
2026-04-28 05:33 36.79587 27.09016 415 ft 21 kts 150°
2026-04-28 05:34 36.79455 27.09115 411 ft 25 kts 148°
2026-04-28 05:34 36.79282 27.09250 408 ft 34 kts 147°
2026-04-28 05:34 36.79057 27.09426 398 ft 42 kts 148°
2026-04-28 05:34 36.78794 27.09629 393 ft 45 kts 146°
2026-04-28 05:35 36.78614 27.09785 390 ft 18 kts 126°
2026-04-28 05:35 36.78556 27.09821 387 ft 5 kts 269°
2026-04-28 05:35 36.78567 27.09808 387 ft 0 kts 326°
2026-04-28 05:36 36.78571 27.09805 388 ft 9 kts 326°
2026-04-28 05:36 36.78862 27.09578 395 ft 88 kts 328°
2026-04-28 05:36 36.79589 27.09022 430 ft 153 kts 327°
2026-04-28 05:36 36.80580 27.08243 997 ft 172 kts 329°
2026-04-28 05:37 36.81484 27.07304 2091 ft 172 kts 309°
2026-04-28 05:37 36.81945 27.05785 2335 ft 213 kts 277°
2026-04-28 05:37 36.81680 27.03865 2733 ft 233 kts 257°
2026-04-28 05:37 36.81504 27.01869 3216 ft 238 kts 282°
2026-04-28 05:38 36.82165 26.99944 3543 ft 253 kts 309°
2026-04-28 05:38 36.83388 26.98282 4111 ft 262 kts 316°
2026-04-28 05:38 36.84646 26.96656 5154 ft 255 kts 314°
2026-04-28 05:38 36.85883 26.95082 6013 ft 258 kts 321°
2026-04-28 05:39 36.87464 26.93934 6466 ft 273 kts 338°
2026-04-28 05:39 36.89256 26.93106 7294 ft 271 kts 341°
2026-04-28 05:39 36.91041 26.92351 8196 ft 270 kts 341°
2026-04-28 05:39 36.92806 26.91590 8957 ft 274 kts 340°
2026-04-28 05:40 36.94644 26.90752 9543 ft 283 kts 339°
2026-04-28 05:40 36.96506 26.89868 10262 ft 287 kts 339°
2026-04-28 05:40 36.98410 26.88943 10558 ft 308 kts 338°
2026-04-28 05:40 37.00472 26.87923 10734 ft 330 kts 338°
2026-04-28 05:41 37.02682 26.86816 10912 ft 351 kts 338°
2026-04-28 05:41 37.05006 26.85641 11259 ft 365 kts 337°
2026-04-28 05:41 37.07348 26.84452 11902 ft 366 kts 336°
2026-04-28 05:41 37.09722 26.83241 11987 ft 371 kts 336°
2026-04-28 05:42 37.12127 26.82012 12016 ft 370 kts 337°
2026-04-28 05:42 37.14478 26.80810 12011 ft 369 kts 337°
2026-04-28 05:42 37.16873 26.79583 12121 ft 373 kts 337°
2026-04-28 05:42 37.19282 26.78346 12802 ft 375 kts 336°
2026-04-28 05:43 37.21715 26.77096 13526 ft 376 kts 336°
2026-04-28 05:43 37.24115 26.75863 14199 ft 378 kts 336°
2026-04-28 05:43 37.26572 26.74599 14726 ft 383 kts 336°
2026-04-28 05:43 37.29061 26.73318 15366 ft 385 kts 336°
2026-04-28 05:44 37.31541 26.72041 15941 ft 389 kts 336°
2026-04-28 05:44 37.34067 26.70739 16516 ft 392 kts 336°
2026-04-28 05:44 37.36585 26.69441 17110 ft 395 kts 335°
2026-04-28 05:44 37.39144 26.68121 17716 ft 397 kts 335°
2026-04-28 05:45 37.41674 26.66814 18297 ft 399 kts 335°
2026-04-28 05:45 37.44273 26.65471 18803 ft 402 kts 335°
2026-04-28 05:45 37.46842 26.64142 19293 ft 404 kts 335°
2026-04-28 05:45 37.49455 26.62790 19793 ft 406 kts 335°
2026-04-28 05:46 37.52070 26.61436 20285 ft 409 kts 335°
2026-04-28 05:46 37.54725 26.60059 20764 ft 411 kts 335°
2026-04-28 05:46 37.57353 26.58696 21230 ft 413 kts 335°
2026-04-28 05:46 37.60040 26.57300 21693 ft 416 kts 335°
2026-04-28 05:47 37.62699 26.55919 22137 ft 418 kts 335°
2026-04-28 05:47 37.65416 26.54506 22611 ft 419 kts 335°
2026-04-28 05:47 37.68053 26.52955 23034 ft 420 kts 328°
2026-04-28 05:47 37.70463 26.50911 23449 ft 421 kts 319°
2026-04-28 05:48 37.72663 26.48497 23843 ft 422 kts 317°
2026-04-28 05:48 37.74881 26.46013 24189 ft 425 kts 317°
2026-04-28 05:48 37.77095 26.43545 24523 ft 427 kts 317°
2026-04-28 05:48 37.79350 26.41052 24858 ft 429 kts 317°
2026-04-28 05:49 37.81592 26.38589 25183 ft 431 kts 318°
2026-04-28 05:49 37.83877 26.36087 25538 ft 432 kts 317°
2026-04-28 05:49 37.86134 26.33614 25880 ft 434 kts 317°
2026-04-28 05:49 37.88427 26.31101 26188 ft 435 kts 317°
2026-04-28 05:50 37.90711 26.28601 26479 ft 438 kts 317°
2026-04-28 05:50 37.92256 26.26910 26675 ft 439 kts 317°
2026-04-28 05:50 37.95344 26.23525 27078 ft 441 kts 317°
2026-04-28 05:50 37.97655 26.20990 27363 ft 443 kts 317°
2026-04-28 05:51 37.99201 26.19292 27537 ft 444 kts 317°
2026-04-28 05:51 38.02327 26.15856 27903 ft 446 kts 317°
2026-04-28 05:51 38.03888 26.14139 28088 ft 447 kts 317°
2026-04-28 05:51 38.07013 26.10698 28588 ft 446 kts 317°
2026-04-28 05:52 38.08574 26.08979 28882 ft 444 kts 317°
2026-04-28 05:52 38.10893 26.06424 29314 ft 442 kts 317°
2026-04-28 05:52 38.13225 26.03852 29735 ft 441 kts 317°
2026-04-28 05:52 38.15525 26.01313 30131 ft 439 kts 317°
2026-04-28 05:53 38.17849 25.98743 30448 ft 439 kts 317°
2026-04-28 05:53 38.20135 25.96214 30743 ft 438 kts 317°
2026-04-28 05:53 38.22441 25.93661 31037 ft 438 kts 317°
2026-04-28 05:53 38.24715 25.91142 31326 ft 437 kts 317°
2026-04-28 05:54 38.27073 25.88673 31630 ft 437 kts 320°
2026-04-28 05:54 38.29503 25.86315 31960 ft 436 kts 321°
2026-04-28 05:54 38.31918 25.84019 32268 ft 435 kts 321°
2026-04-28 05:54 38.34344 25.81689 32542 ft 435 kts 320°
2026-04-28 05:55 38.36739 25.79360 32825 ft 434 kts 320°
2026-04-28 05:55 38.39112 25.77030 33112 ft 433 kts 320°
2026-04-28 05:55 38.41511 25.74659 33446 ft 432 kts 320°
2026-04-28 05:55 38.43859 25.72337 33780 ft 430 kts 320°
2026-04-28 05:56 38.46236 25.69994 34052 ft 429 kts 320°
2026-04-28 05:56 38.48591 25.67689 34259 ft 429 kts 320°
2026-04-28 05:56 38.50990 25.65348 34454 ft 430 kts 320°
2026-04-28 05:56 38.53343 25.63051 34666 ft 429 kts 320°
2026-04-28 05:57 38.55701 25.60747 34871 ft 429 kts 320°
2026-04-28 05:57 38.58090 25.58407 35053 ft 429 kts 320°
2026-04-28 05:57 38.60446 25.56098 35233 ft 429 kts 320°
2026-04-28 05:57 38.62827 25.53761 35449 ft 429 kts 320°
2026-04-28 05:58 38.65169 25.51460 35634 ft 429 kts 320°
2026-04-28 05:58 38.67553 25.49115 35833 ft 429 kts 320°
2026-04-28 05:58 38.69898 25.46807 36041 ft 428 kts 320°
2026-04-28 05:58 38.72280 25.44459 36093 ft 430 kts 320°
2026-04-28 05:59 38.77000 25.39802 36105 ft 430 kts 320°
2026-04-28 05:59 38.81709 25.35149 36113 ft 426 kts 320°
2026-04-28 06:00 38.86398 25.30508 36122 ft 423 kts 320°
2026-04-28 06:00 38.91028 25.25917 36130 ft 422 kts 320°
2026-04-28 06:01 38.95665 25.21310 36138 ft 421 kts 320°
2026-04-28 06:01 39.00294 25.16704 36132 ft 422 kts 320°
2026-04-28 06:02 39.04963 25.12049 36140 ft 424 kts 320°
2026-04-28 06:02 39.09622 25.07398 36142 ft 426 kts 320°
2026-04-28 06:03 39.14335 25.02683 36140 ft 428 kts 320°
2026-04-28 06:03 39.19049 24.97960 36145 ft 430 kts 321°
2026-04-28 06:04 39.23771 24.93220 36157 ft 432 kts 321°
2026-04-28 06:04 39.28510 24.88449 36147 ft 432 kts 321°
2026-04-28 06:05 39.33232 24.83685 36150 ft 432 kts 321°
2026-04-28 06:05 39.37961 24.78906 36151 ft 432 kts 321°
2026-04-28 06:06 39.42706 24.74102 36158 ft 431 kts 321°
2026-04-28 06:06 39.47418 24.69325 36163 ft 430 kts 321°
2026-04-28 06:07 39.52374 24.65072 36165 ft 431 kts 333°
2026-04-28 06:07 39.57765 24.61746 36160 ft 430 kts 333°
2026-04-28 06:08 39.63173 24.58415 36153 ft 429 kts 333°
2026-04-28 06:08 39.68575 24.55042 36163 ft 429 kts 333°
2026-04-28 06:09 39.73909 24.51685 36174 ft 429 kts 333°
2026-04-28 06:09 39.79309 24.48275 36167 ft 429 kts 333°
2026-04-28 06:10 39.84646 24.44899 36175 ft 430 kts 333°
2026-04-28 06:10 39.90021 24.41494 36168 ft 430 kts 333°
2026-04-28 06:11 39.95414 24.38071 36159 ft 431 kts 333°
2026-04-28 06:11 40.00819 24.34635 36166 ft 431 kts 333°
2026-04-28 06:12 40.06211 24.31202 36170 ft 431 kts 333°
2026-04-28 06:12 40.11590 24.27770 36169 ft 431 kts 333°
2026-04-28 06:13 40.16953 24.24342 36172 ft 431 kts 333°
2026-04-28 06:13 40.22377 24.20869 36185 ft 431 kts 333°
2026-04-28 06:14 40.27734 24.17433 36171 ft 431 kts 333°
2026-04-28 06:14 40.33149 24.13954 36166 ft 431 kts 333°
2026-04-28 06:15 40.38527 24.10492 36164 ft 431 kts 333°
2026-04-28 06:15 40.43888 24.07035 36178 ft 430 kts 333°
2026-04-28 06:16 40.49268 24.03559 36171 ft 430 kts 333°
2026-04-28 06:16 40.54628 24.00090 36167 ft 429 kts 333°
2026-04-28 06:17 40.60039 23.96843 36161 ft 429 kts 341°
2026-04-28 06:18 40.68824 23.94553 36185 ft 429 kts 349°
2026-04-28 06:18 40.74704 23.93209 36164 ft 429 kts 349°
2026-04-28 06:19 40.80589 23.91823 36167 ft 429 kts 348°
2026-04-28 06:19 40.86460 23.90420 36171 ft 429 kts 348°
2026-04-28 06:20 40.92331 23.89011 36172 ft 428 kts 349°
2026-04-28 06:20 40.98160 23.87610 36160 ft 428 kts 349°
2026-04-28 06:21 41.04032 23.86197 36161 ft 427 kts 349°
2026-04-28 06:21 41.09856 23.84793 36159 ft 426 kts 349°
2026-04-28 06:22 41.15690 23.83385 36157 ft 426 kts 349°
2026-04-28 06:22 41.21496 23.81980 36152 ft 425 kts 349°
2026-04-28 06:23 41.27339 23.80564 36159 ft 425 kts 349°
2026-04-28 06:23 41.33146 23.79178 36147 ft 425 kts 349°
2026-04-28 06:24 41.38971 23.77794 36147 ft 425 kts 349°
2026-04-28 06:24 41.44826 23.76712 36148 ft 426 kts 353°
2026-04-28 06:25 41.50697 23.75937 36142 ft 426 kts 353°
2026-04-28 06:25 41.56621 23.75154 36142 ft 426 kts 353°
2026-04-28 06:26 41.62525 23.74335 36129 ft 427 kts 353°
2026-04-28 06:26 41.68394 23.73501 36132 ft 426 kts 352°
2026-04-28 06:27 41.74286 23.72659 36136 ft 426 kts 352°
2026-04-28 06:27 41.80180 23.71816 36129 ft 426 kts 352°
2026-04-28 06:28 41.86095 23.70968 36125 ft 427 kts 352°
2026-04-28 06:28 41.91996 23.70121 36143 ft 426 kts 352°
2026-04-28 06:29 41.97898 23.69273 36129 ft 426 kts 352°
2026-04-28 06:29 42.03767 23.68428 36131 ft 426 kts 352°
2026-04-28 06:30 42.09665 23.67577 36131 ft 425 kts 352°
2026-04-28 06:30 42.15529 23.66729 36133 ft 424 kts 352°
2026-04-28 06:31 42.21349 23.65886 36139 ft 423 kts 352°
2026-04-28 06:31 42.27178 23.65039 36136 ft 422 kts 352°
2026-04-28 06:32 42.32959 23.63818 36140 ft 419 kts 345°
2026-04-28 06:32 42.38593 23.61834 36129 ft 419 kts 343°
2026-04-28 06:33 42.44233 23.59797 36140 ft 418 kts 343°
2026-04-28 06:33 42.49829 23.57823 36134 ft 418 kts 344°
2026-04-28 06:34 42.55474 23.55856 36144 ft 418 kts 343°
2026-04-28 06:34 42.61125 23.53892 36144 ft 419 kts 343°
2026-04-28 06:35 42.66772 23.51927 36139 ft 420 kts 343°
2026-04-28 06:35 42.72424 23.49955 36159 ft 420 kts 343°
2026-04-28 06:36 42.78060 23.47983 36144 ft 420 kts 343°
2026-04-28 06:36 42.83712 23.46003 36146 ft 419 kts 343°
2026-04-28 06:37 42.89361 23.44020 36146 ft 419 kts 343°
2026-04-28 06:37 42.95005 23.42035 36148 ft 419 kts 343°
2026-04-28 06:38 43.00657 23.40043 36140 ft 419 kts 343°
2026-04-28 06:38 43.06278 23.38066 36150 ft 417 kts 343°
2026-04-28 06:39 43.11901 23.36070 36136 ft 417 kts 343°
2026-04-28 06:39 43.17502 23.34088 36152 ft 416 kts 342°
2026-04-28 06:40 43.23166 23.32351 36137 ft 419 kts 351°
2026-04-28 06:40 43.28944 23.31751 36142 ft 420 kts 352°
2026-04-28 06:41 43.34779 23.31064 36159 ft 420 kts 351°
2026-04-28 06:41 43.40590 23.30323 36146 ft 420 kts 351°
2026-04-28 06:42 43.46419 23.29581 36150 ft 421 kts 351°
2026-04-28 06:42 43.52247 23.28844 36149 ft 421 kts 351°
2026-04-28 06:43 43.58097 23.28120 36163 ft 422 kts 351°
2026-04-28 06:43 43.63925 23.27403 36162 ft 422 kts 351°
2026-04-28 06:44 43.69764 23.26681 36149 ft 422 kts 351°
2026-04-28 06:44 43.75581 23.25960 36175 ft 421 kts 351°
2026-04-28 06:45 43.81445 23.25231 36169 ft 422 kts 351°
2026-04-28 06:45 43.87129 23.23673 36178 ft 417 kts 341°
2026-04-28 06:46 43.92727 23.21472 36177 ft 417 kts 341°
2026-04-28 06:46 43.98295 23.19280 36171 ft 417 kts 341°
2026-04-28 06:47 44.03882 23.17109 36170 ft 417 kts 341°
2026-04-28 06:47 44.09466 23.14952 36157 ft 417 kts 341°
2026-04-28 06:48 44.15066 23.12789 36171 ft 417 kts 341°
2026-04-28 06:48 44.20629 23.10637 36177 ft 417 kts 341°
2026-04-28 06:49 44.25281 23.08834 36172 ft 417 kts 341°
2026-04-28 06:49 44.31789 23.06306 36169 ft 417 kts 341°
2026-04-28 06:50 44.36436 23.04497 36162 ft 417 kts 341°
2026-04-28 06:50 44.42024 23.02319 36162 ft 416 kts 341°
2026-04-28 06:51 44.47592 23.00143 36163 ft 415 kts 341°
2026-04-28 06:51 44.53165 22.97962 36164 ft 415 kts 341°
2026-04-28 06:52 44.58722 22.95782 36169 ft 415 kts 341°
2026-04-28 06:52 44.64237 22.93614 36182 ft 414 kts 341°
2026-04-28 06:53 44.69817 22.91417 36166 ft 414 kts 341°
2026-04-28 06:53 44.75347 22.89235 36165 ft 414 kts 341°
2026-04-28 06:54 44.80905 22.87038 36166 ft 414 kts 341°
2026-04-28 06:54 44.86424 22.84851 36175 ft 414 kts 341°
2026-04-28 06:55 44.91989 22.82642 36162 ft 414 kts 341°
2026-04-28 06:55 44.97533 22.80437 36158 ft 414 kts 341°
2026-04-28 06:56 45.03075 22.78228 36153 ft 414 kts 341°
2026-04-28 06:56 45.08617 22.76015 36164 ft 414 kts 340°
2026-04-28 06:57 45.14138 22.73805 36159 ft 415 kts 340°
2026-04-28 06:57 45.19722 22.71566 36142 ft 415 kts 340°
2026-04-28 06:58 45.25275 22.69334 36140 ft 414 kts 340°
2026-04-28 06:58 45.30789 22.67115 36181 ft 414 kts 340°
2026-04-28 06:59 45.36324 22.64883 36150 ft 413 kts 340°
2026-04-28 06:59 45.41833 22.62656 36147 ft 413 kts 340°
2026-04-28 07:00 45.47363 22.60416 36152 ft 413 kts 340°
2026-04-28 07:00 45.52882 22.58176 36176 ft 412 kts 340°
2026-04-28 07:01 45.58371 22.55943 36159 ft 411 kts 340°
2026-04-28 07:01 45.63873 22.53701 36166 ft 411 kts 340°
2026-04-28 07:02 45.69380 22.51451 36168 ft 410 kts 340°
2026-04-28 07:02 45.74824 22.49224 36172 ft 409 kts 340°
2026-04-28 07:03 45.80306 22.46974 36174 ft 410 kts 340°
2026-04-28 07:03 45.85801 22.44714 36171 ft 410 kts 340°
2026-04-28 07:04 45.91255 22.42472 36162 ft 410 kts 340°
2026-04-28 07:04 45.96767 22.40198 36169 ft 410 kts 340°
2026-04-28 07:05 46.02237 22.37936 36172 ft 411 kts 339°
2026-04-28 07:05 46.07729 22.35661 36166 ft 411 kts 339°
2026-04-28 07:06 46.13239 22.33373 36171 ft 411 kts 339°
2026-04-28 07:06 46.18702 22.31101 36176 ft 410 kts 339°
2026-04-28 07:07 46.24183 22.28816 36180 ft 410 kts 339°
2026-04-28 07:07 46.29673 22.26522 36163 ft 410 kts 339°
2026-04-28 07:08 46.35128 22.24239 36167 ft 410 kts 339°
2026-04-28 07:08 46.40604 22.21942 36160 ft 410 kts 339°
2026-04-28 07:09 46.46080 22.19640 36187 ft 410 kts 339°
2026-04-28 07:09 46.51596 22.17316 36172 ft 411 kts 339°
2026-04-28 07:10 46.57049 22.15013 36162 ft 411 kts 339°
2026-04-28 07:10 46.62561 22.12682 36166 ft 411 kts 339°
2026-04-28 07:11 46.68035 22.10361 36161 ft 411 kts 339°
2026-04-28 07:11 46.73532 22.08026 36164 ft 411 kts 339°
2026-04-28 07:12 46.78990 22.05703 36163 ft 410 kts 339°
2026-04-28 07:12 46.84462 22.03368 36180 ft 410 kts 339°
2026-04-28 07:13 46.89928 22.01030 36179 ft 410 kts 338°
2026-04-28 07:13 46.95398 21.98686 36197 ft 410 kts 338°
2026-04-28 07:14 47.00882 21.96332 36191 ft 411 kts 338°
2026-04-28 07:14 47.06369 21.93970 36183 ft 411 kts 338°
2026-04-28 07:15 47.11849 21.91607 36170 ft 411 kts 338°
2026-04-28 07:15 47.17310 21.89247 36179 ft 411 kts 338°
2026-04-28 07:16 47.22813 21.86863 36198 ft 411 kts 338°
2026-04-28 07:16 47.28453 21.85146 36189 ft 417 kts 346°
2026-04-28 07:17 47.34208 21.84132 36183 ft 418 kts 347°
2026-04-28 07:17 47.39995 21.83125 36185 ft 417 kts 347°
2026-04-28 07:18 47.45743 21.82079 36189 ft 417 kts 347°
2026-04-28 07:18 47.51487 21.81006 36183 ft 417 kts 347°
2026-04-28 07:19 47.57235 21.79923 36177 ft 416 kts 346°
2026-04-28 07:19 47.62986 21.78835 36184 ft 416 kts 346°
2026-04-28 07:20 47.68716 21.77750 36189 ft 416 kts 346°
2026-04-28 07:20 47.74446 21.76662 36186 ft 416 kts 346°
2026-04-28 07:21 47.80165 21.75574 36187 ft 416 kts 346°
2026-04-28 07:21 47.85896 21.74482 36210 ft 415 kts 346°
2026-04-28 07:22 47.94482 21.72841 36222 ft 416 kts 346°
2026-04-28 07:22 48.00237 21.71739 36207 ft 416 kts 346°
2026-04-28 07:23 48.05977 21.70637 36208 ft 415 kts 346°
2026-04-28 07:23 48.11713 21.69533 36237 ft 415 kts 346°
2026-04-28 07:24 48.17459 21.68423 36214 ft 416 kts 346°
2026-04-28 07:24 48.23176 21.67318 36199 ft 416 kts 346°
2026-04-28 07:25 48.28933 21.66202 36201 ft 416 kts 346°
2026-04-28 07:25 48.34672 21.65088 36199 ft 416 kts 346°
2026-04-28 07:26 48.40403 21.63971 36199 ft 416 kts 346°
2026-04-28 07:26 48.46132 21.62854 36209 ft 416 kts 346°
2026-04-28 07:27 48.51880 21.61729 36203 ft 417 kts 346°
2026-04-28 07:27 48.57624 21.60603 36211 ft 417 kts 346°
2026-04-28 07:28 48.63369 21.59474 36214 ft 418 kts 346°
2026-04-28 07:28 48.69141 21.58338 36214 ft 418 kts 346°
2026-04-28 07:29 48.74911 21.57199 36208 ft 418 kts 346°
2026-04-28 07:29 48.80678 21.56058 36217 ft 418 kts 346°
2026-04-28 07:30 48.86452 21.54913 36226 ft 418 kts 346°
2026-04-28 07:30 48.92228 21.53765 36216 ft 418 kts 346°
2026-04-28 07:31 48.97965 21.52623 36214 ft 417 kts 346°
2026-04-28 07:31 49.03723 21.51472 36223 ft 417 kts 346°
2026-04-28 07:32 49.09488 21.50318 36223 ft 418 kts 346°
2026-04-28 07:32 49.15253 21.49161 36225 ft 418 kts 346°
2026-04-28 07:33 49.21021 21.48000 36272 ft 421 kts 346°
2026-04-28 07:33 49.23946 21.47410 36475 ft 421 kts 346°
2026-04-28 07:33 49.26836 21.46828 36737 ft 419 kts 346°
2026-04-28 07:34 49.29716 21.46247 36917 ft 420 kts 346°
2026-04-28 07:34 49.32640 21.45655 37085 ft 421 kts 347°
2026-04-28 07:34 49.35543 21.45067 37198 ft 422 kts 347°
2026-04-28 07:34 49.38442 21.44480 37225 ft 424 kts 347°
2026-04-28 07:35 49.44418 21.44562 37228 ft 435 kts
2026-04-28 07:35 49.50381 21.46171 37238 ft 433 kts
2026-04-28 07:36 49.56277 21.47805 37274 ft 431 kts
2026-04-28 07:36 49.62179 21.49398 37260 ft 430 kts
2026-04-28 07:37 49.68063 21.50963 37257 ft 429 kts
2026-04-28 07:37 49.73945 21.52523 37258 ft 430 kts
2026-04-28 07:38 49.79853 21.54094 37283 ft 430 kts
2026-04-28 07:38 49.85768 21.55672 37272 ft 431 kts
2026-04-28 07:39 49.91673 21.57252 37269 ft 432 kts
2026-04-28 07:39 49.97624 21.58848 37272 ft 434 kts
2026-04-28 07:40 50.03552 21.60443 37283 ft 435 kts
2026-04-28 07:40 50.09534 21.62056 37276 ft 436 kts
2026-04-28 07:41 50.15502 21.63669 37270 ft 437 kts
2026-04-28 07:41 50.21494 21.65293 37274 ft 437 kts
2026-04-28 07:42 50.27498 21.66925 37281 ft 438 kts
2026-04-28 07:42 50.33492 21.68558 37283 ft 438 kts
2026-04-28 07:43 50.39480 21.70194 37283 ft 438 kts
2026-04-28 07:43 50.45489 21.71839 37280 ft 438 kts
2026-04-28 07:44 50.51486 21.73485 37285 ft 438 kts
2026-04-28 07:44 50.57473 21.75133 37286 ft 438 kts
2026-04-28 07:45 50.63468 21.76786 37288 ft 437 kts
2026-04-28 07:45 50.69476 21.78439 37294 ft 437 kts
2026-04-28 07:46 50.75473 21.80090 37301 ft 437 kts
2026-04-28 07:46 50.81432 21.81737 37304 ft 436 kts
2026-04-28 07:47 50.87383 21.83387 37296 ft 436 kts
2026-04-28 07:47 50.93369 21.85050 37301 ft 436 kts
2026-04-28 07:48 50.99352 21.86717 37315 ft 436 kts
2026-04-28 07:48 51.05323 21.88386 37298 ft 436 kts
2026-04-28 07:49 51.10285 21.89789 37301 ft 436 kts
2026-04-28 07:49 51.16254 21.91480 37303 ft 436 kts
2026-04-28 07:50 51.22239 21.93127 37307 ft 436 kts
2026-04-28 07:50 51.28190 21.94759 37296 ft 436 kts
2026-04-28 07:51 51.34158 21.96408 37304 ft 435 kts
2026-04-28 07:51 51.40126 21.98062 37293 ft 435 kts
2026-04-28 07:52 51.46076 21.99744 37295 ft 435 kts
2026-04-28 07:52 51.52062 22.01481 37299 ft 435 kts
2026-04-28 07:53 51.58008 22.03204 37298 ft 434 kts
2026-04-28 07:53 51.63937 22.04925 37299 ft 434 kts
2026-04-28 07:54 51.69864 22.06658 37300 ft 435 kts
2026-04-28 07:54 51.75826 22.08408 37293 ft 435 kts
2026-04-28 07:55 51.81775 22.10156 37298 ft 434 kts
2026-04-28 07:55 51.87723 22.11900 37292 ft 434 kts
2026-04-28 07:56 51.93673 22.13646 37295 ft 435 kts
2026-04-28 07:56 51.99592 22.15389 37287 ft 435 kts
2026-04-28 07:57 52.05549 22.17149 37284 ft 435 kts
2026-04-28 07:57 52.11510 22.18915 37283 ft 435 kts
2026-04-28 07:58 52.17442 22.20712 37276 ft 436 kts
2026-04-28 07:58 52.23360 22.22787 37274 ft 435 kts
2026-04-28 07:59 52.29292 22.24911 37278 ft 434 kts
2026-04-28 07:59 52.35175 22.26987 37278 ft 433 kts
2026-04-28 08:00 52.41084 22.29064 37284 ft 434 kts
2026-04-28 08:00 52.46955 22.31138 37277 ft 433 kts
2026-04-28 08:01 52.52843 22.33229 37272 ft 433 kts
2026-04-28 08:01 52.58739 22.35328 37269 ft 433 kts
2026-04-28 08:02 52.64632 22.37431 37277 ft 433 kts
2026-04-28 08:02 52.70531 22.39541 37277 ft 433 kts
2026-04-28 08:03 52.76425 22.41656 37273 ft 434 kts
2026-04-28 08:03 52.82293 22.43769 37262 ft 434 kts
2026-04-28 08:04 52.88191 22.45901 37282 ft 435 kts
2026-04-28 08:04 52.94110 22.48046 37264 ft 435 kts
2026-04-28 08:05 53.00037 22.50201 37262 ft 436 kts
2026-04-28 08:05 53.05977 22.52365 37256 ft 436 kts
2026-04-28 08:06 53.11901 22.54531 37297 ft 437 kts
2026-04-28 08:06 53.17811 22.56698 37274 ft 437 kts
2026-04-28 08:07 53.23741 22.58877 37254 ft 436 kts
2026-04-28 08:07 53.29692 22.61067 37244 ft 435 kts
2026-04-28 08:08 53.35562 22.63224 37276 ft 433 kts
2026-04-28 08:08 53.41465 22.65399 37255 ft 433 kts
2026-04-28 08:09 53.47302 22.67557 37253 ft 432 kts
2026-04-28 08:09 53.53175 22.69735 37256 ft 431 kts
2026-04-28 08:10 53.59014 22.71907 37258 ft 431 kts
2026-04-28 08:10 53.64915 22.74108 37255 ft 432 kts
2026-04-28 08:11 53.70750 22.76291 37248 ft 432 kts
2026-04-28 08:11 53.76638 22.78499 37248 ft 433 kts
2026-04-28 08:12 53.82492 22.80702 37243 ft 433 kts
2026-04-28 08:12 53.88390 22.82929 37243 ft 434 kts
2026-04-28 08:13 53.94256 22.85150 37240 ft 434 kts
2026-04-28 08:13 54.00159 22.87393 37246 ft 434 kts
2026-04-28 08:14 54.06063 22.89646 37243 ft 435 kts
2026-04-28 08:14 54.11818 22.92984 37264 ft 440 kts 18°
2026-04-28 08:15 54.17498 22.96933 37249 ft 440 kts 18°
2026-04-28 08:15 54.23169 23.00786 37238 ft 440 kts 17°
2026-04-28 08:16 54.28879 23.04609 37236 ft 439 kts 17°
2026-04-28 08:16 54.34714 23.07336 37281 ft 432 kts
2026-04-28 08:17 54.40594 23.09151 37235 ft 432 kts
2026-04-28 08:17 54.46530 23.10990 37225 ft 432 kts
2026-04-28 08:18 54.52449 23.12875 37213 ft 432 kts
2026-04-28 08:18 54.58361 23.14788 37226 ft 432 kts
2026-04-28 08:19 54.64236 23.16701 37230 ft 432 kts
2026-04-28 08:19 54.70180 23.18641 37230 ft 433 kts
2026-04-28 08:20 54.76098 23.20579 37221 ft 434 kts
2026-04-28 08:20 54.82029 23.22526 37218 ft 434 kts
2026-04-28 08:21 54.87945 23.24474 37235 ft 435 kts
2026-04-28 08:21 54.93917 23.26446 37228 ft 436 kts
2026-04-28 08:22 54.99891 23.28425 37221 ft 437 kts
2026-04-28 08:22 55.05833 23.30399 37216 ft 438 kts
2026-04-28 08:23 55.11821 23.32395 37215 ft 438 kts
2026-04-28 08:23 55.17829 23.34403 37219 ft 439 kts
2026-04-28 08:24 55.23844 23.36420 37206 ft 440 kts
2026-04-28 08:24 55.29823 23.38432 37204 ft 440 kts
2026-04-28 08:25 55.35838 23.40461 37211 ft 440 kts
2026-04-28 08:26 55.44827 23.43505 37216 ft 440 kts
2026-04-28 08:26 55.50833 23.45547 37208 ft 440 kts
2026-04-28 08:27 55.56836 23.47595 37197 ft 439 kts
2026-04-28 08:27 55.62849 23.49653 37197 ft 438 kts
2026-04-28 08:28 55.68792 23.51692 37200 ft 437 kts
2026-04-28 08:28 55.74777 23.53752 37209 ft 437 kts
2026-04-28 08:29 55.80742 23.55812 37200 ft 436 kts
2026-04-28 08:29 55.86695 23.57875 37196 ft 436 kts
2026-04-28 08:30 55.92642 23.59941 37219 ft 436 kts
2026-04-28 08:30 55.98611 23.62022 37191 ft 436 kts
2026-04-28 08:31 56.04565 23.64104 37194 ft 436 kts
2026-04-28 08:31 56.10493 23.66183 37183 ft 437 kts
2026-04-28 08:32 56.16461 23.68284 37192 ft 437 kts
2026-04-28 08:32 56.22431 23.70391 37201 ft 439 kts
2026-04-28 08:33 56.28453 23.72524 37520 ft 440 kts
2026-04-28 08:33 56.31431 23.73582 37757 ft 438 kts
2026-04-28 08:33 56.34420 23.74642 37921 ft 439 kts
2026-04-28 08:33 56.37472 23.75330 38033 ft 438 kts
2026-04-28 08:34 56.40475 23.75188 38147 ft 437 kts 354°
2026-04-28 08:34 56.46573 23.74043 38178 ft 439 kts 353°
2026-04-28 08:35 56.52641 23.72856 38180 ft 437 kts 353°
2026-04-28 08:35 56.58648 23.71727 38176 ft 435 kts 353°
2026-04-28 08:36 56.64671 23.70624 38186 ft 434 kts 354°
2026-04-28 08:36 56.70668 23.69532 38176 ft 433 kts 354°
2026-04-28 08:37 56.76636 23.68444 38203 ft 432 kts 354°
2026-04-28 08:37 56.82623 23.67347 38180 ft 432 kts 354°
2026-04-28 08:38 56.88603 23.66248 38191 ft 433 kts 354°
2026-04-28 08:38 56.94617 23.65139 38190 ft 434 kts 354°
2026-04-28 08:39 57.00611 23.64030 38179 ft 435 kts 354°
2026-04-28 08:39 57.06675 23.62904 38177 ft 436 kts 354°
2026-04-28 08:40 57.12708 23.61780 38181 ft 438 kts 354°
2026-04-28 08:40 57.18785 23.60645 38182 ft 439 kts 354°
2026-04-28 08:41 57.24833 23.59511 38183 ft 440 kts 354°
2026-04-28 08:41 57.30951 23.58360 38174 ft 440 kts 354°
2026-04-28 08:42 57.37014 23.57216 38174 ft 441 kts 354°
2026-04-28 08:42 57.43136 23.56057 38187 ft 441 kts 354°
2026-04-28 08:43 57.49220 23.54901 38181 ft 441 kts 354°
2026-04-28 08:43 57.55337 23.53735 38179 ft 441 kts 354°
2026-04-28 08:44 57.60395 23.52767 38171 ft 441 kts 354°
2026-04-28 08:44 57.66498 23.51597 38180 ft 440 kts 354°
2026-04-28 08:45 57.72569 23.50428 38185 ft 439 kts 354°
2026-04-28 08:45 57.78653 23.49253 38189 ft 439 kts 354°
2026-04-28 08:46 57.85717 23.47884 38195 ft 438 kts 354°
2026-04-28 08:46 57.90798 23.46896 38196 ft 438 kts 354°
2026-04-28 08:47 57.96849 23.45716 38196 ft 438 kts 354°
2026-04-28 08:47 58.02898 23.44532 38196 ft 438 kts 354°
2026-04-28 08:48 58.08983 23.43336 38198 ft 438 kts 354°
2026-04-28 08:48 58.15050 23.42141 38189 ft 438 kts 354°
2026-04-28 08:49 58.21078 23.40949 38184 ft 438 kts 354°
2026-04-28 08:49 58.27140 23.39745 38183 ft 438 kts 354°
2026-04-28 08:50 58.33212 23.38536 38189 ft 438 kts 354°
2026-04-28 08:50 58.39283 23.37323 38184 ft 439 kts 354°
2026-04-28 08:51 58.45362 23.36104 38180 ft 439 kts 354°
2026-04-28 08:51 58.51431 23.34883 38176 ft 439 kts 354°
2026-04-28 08:52 58.57472 23.33663 38186 ft 439 kts 354°
2026-04-28 08:52 58.63551 23.32432 38194 ft 439 kts 354°
2026-04-28 08:53 58.69659 23.31190 38181 ft 440 kts 354°
2026-04-28 08:53 58.75737 23.29950 38168 ft 440 kts 354°
2026-04-28 08:54 58.81804 23.28707 38188 ft 439 kts 354°
2026-04-28 08:54 58.87885 23.27458 38193 ft 439 kts 354°
2026-04-28 08:55 58.93962 23.26205 38199 ft 439 kts 354°
2026-04-28 08:55 59.00014 23.24952 38202 ft 439 kts 354°
2026-04-28 08:56 59.06083 23.23692 38200 ft 439 kts 354°
2026-04-28 08:56 59.12165 23.22424 38185 ft 439 kts 354°
2026-04-28 08:57 59.18230 23.21156 38177 ft 439 kts 354°
2026-04-28 08:57 59.24296 23.19882 38193 ft 439 kts 354°
2026-04-28 08:58 59.30362 23.18604 38194 ft 439 kts 354°
2026-04-28 08:58 59.36444 23.17318 38183 ft 439 kts 354°
2026-04-28 08:59 59.42487 23.16036 38182 ft 438 kts 354°
2026-04-28 08:59 59.48534 23.14749 38204 ft 438 kts 354°
2026-04-28 09:00 59.54574 23.13384 38195 ft 438 kts 353°
2026-04-28 09:00 59.60634 23.11800 38199 ft 437 kts 353°
2026-04-28 09:01 59.66636 23.10201 38186 ft 437 kts 353°
2026-04-28 09:01 59.69679 23.09397 37911 ft 441 kts 353°
2026-04-28 09:01 59.72686 23.08607 37663 ft 438 kts 353°
2026-04-28 09:01 59.75728 23.07809 37406 ft 436 kts 353°
2026-04-28 09:02 59.78707 23.07028 37167 ft 435 kts 353°
2026-04-28 09:02 59.81729 23.06236 36911 ft 434 kts 353°
2026-04-28 09:02 59.84708 23.05454 36669 ft 434 kts 353°
2026-04-28 09:02 59.87707 23.04666 36429 ft 433 kts 353°
2026-04-28 09:03 59.90688 23.03880 36188 ft 433 kts 353°
2026-04-28 09:03 59.93687 23.03088 35881 ft 434 kts 353°
2026-04-28 09:03 59.96689 23.02295 35539 ft 436 kts 353°
2026-04-28 09:03 59.99678 23.01503 35196 ft 438 kts 353°
2026-04-28 09:04 60.02689 23.00703 34858 ft 438 kts 353°
2026-04-28 09:04 60.05731 22.99894 34510 ft 438 kts 353°
2026-04-28 09:04 60.08744 22.99091 34050 ft 439 kts 353°
2026-04-28 09:04 60.11772 22.98282 33519 ft 437 kts 353°
2026-04-28 09:05 60.14774 22.97479 32975 ft 437 kts 353°
2026-04-28 09:05 60.17761 22.96678 32417 ft 432 kts 353°
2026-04-28 09:05 60.20746 22.95876 31867 ft 427 kts 353°
2026-04-28 09:05 60.23656 22.95092 31409 ft 420 kts 353°
2026-04-28 09:06 60.26514 22.94321 30893 ft 412 kts 353°
2026-04-28 09:06 60.29353 22.93553 30257 ft 404 kts 353°
2026-04-28 09:06 60.32114 22.92806 29391 ft 398 kts 353°
2026-04-28 09:06 60.34828 22.92072 28546 ft 392 kts 353°
2026-04-28 09:07 60.37494 22.91348 27729 ft 386 kts 353°
2026-04-28 09:07 60.40148 22.90628 26956 ft 380 kts 353°
2026-04-28 09:07 60.42723 22.89927 26312 ft 372 kts 353°
2026-04-28 09:07 60.45281 22.89229 25798 ft 368 kts 353°
2026-04-28 09:08 60.47793 22.88544 25305 ft 365 kts 353°
2026-04-28 09:08 60.50317 22.87854 24785 ft 362 kts 354°
2026-04-28 09:08 60.52789 22.87177 24326 ft 357 kts 354°
2026-04-28 09:08 60.55225 22.86509 23879 ft 354 kts 354°
2026-04-28 09:09 60.57652 22.85842 23348 ft 351 kts 354°
2026-04-28 09:09 60.60078 22.85175 22850 ft 346 kts 354°
2026-04-28 09:09 60.62423 22.84528 22400 ft 341 kts 354°
2026-04-28 09:09 60.64782 22.83877 21948 ft 337 kts 354°
2026-04-28 09:10 60.67076 22.83242 21500 ft 334 kts 354°
2026-04-28 09:10 60.69359 22.82611 21051 ft 332 kts 354°
2026-04-28 09:10 60.71658 22.81974 20601 ft 331 kts 354°
2026-04-28 09:10 60.73929 22.81345 20164 ft 332 kts 354°
2026-04-28 09:11 60.76237 22.80704 19725 ft 331 kts 354°
2026-04-28 09:11 60.78494 22.80076 19262 ft 328 kts 354°
2026-04-28 09:11 60.80760 22.79444 18840 ft 324 kts 354°
2026-04-28 09:11 60.82963 22.78828 18402 ft 322 kts 354°
2026-04-28 09:12 60.85193 22.78204 17943 ft 318 kts 354°
2026-04-28 09:12 60.87352 22.77600 17525 ft 315 kts 354°
2026-04-28 09:12 60.89511 22.76995 17113 ft 314 kts 354°
2026-04-28 09:12 60.91663 22.76391 16693 ft 312 kts 354°
2026-04-28 09:13 60.93824 22.75784 16257 ft 312 kts 354°
2026-04-28 09:13 60.95970 22.75181 15842 ft 313 kts 354°
2026-04-28 09:13 60.98146 22.74568 15406 ft 312 kts 354°
2026-04-28 09:13 61.00274 22.73967 14987 ft 309 kts 354°
2026-04-28 09:14 61.02407 22.73364 14570 ft 306 kts 354°
2026-04-28 09:14 61.04431 22.72348 14381 ft 300 kts 340°
2026-04-28 09:14 61.06230 22.70316 14280 ft 286 kts 330°
2026-04-28 09:14 61.07738 22.67802 14148 ft 273 kts 322°
2026-04-28 09:15 61.09058 22.65141 13811 ft 265 kts 321°
2026-04-28 09:15 61.10369 22.62435 13281 ft 264 kts 321°
2026-04-28 09:15 61.11650 22.59783 12767 ft 262 kts 321°
2026-04-28 09:15 61.12941 22.57113 12294 ft 260 kts 321°
2026-04-28 09:16 61.14223 22.54467 11821 ft 258 kts 321°
2026-04-28 09:16 61.15484 22.51865 11346 ft 256 kts 321°
2026-04-28 09:16 61.16733 22.49290 10904 ft 254 kts 321°
2026-04-28 09:16 61.17985 22.46707 10449 ft 252 kts 321°
2026-04-28 09:17 61.19234 22.44132 9996 ft 251 kts 321°
2026-04-28 09:17 61.20454 22.41614 9553 ft 247 kts 321°
2026-04-28 09:17 61.21672 22.39098 9068 ft 246 kts 320°
2026-04-28 09:17 61.22883 22.36593 8593 ft 244 kts 320°
2026-04-28 09:18 61.24073 22.34130 8176 ft 241 kts 320°
2026-04-28 09:18 61.25251 22.31688 7790 ft 237 kts 320°
2026-04-28 09:18 61.26407 22.29292 7398 ft 235 kts 320°
2026-04-28 09:18 61.27572 22.26873 6917 ft 234 kts 320°
2026-04-28 09:19 61.28702 22.24523 6379 ft 230 kts 320°
2026-04-28 09:19 61.29820 22.22195 5750 ft 226 kts 320°
2026-04-28 09:19 61.30900 22.19943 5405 ft 212 kts 321°
2026-04-28 09:19 61.31930 22.17791 4812 ft 208 kts 321°
2026-04-28 09:20 61.32945 22.15678 4256 ft 206 kts 321°
2026-04-28 09:20 61.33930 22.13618 3917 ft 195 kts 321°
2026-04-28 09:20 61.34861 22.11663 3598 ft 184 kts 321°
2026-04-28 09:20 61.35751 22.09800 3227 ft 179 kts 321°
2026-04-28 09:21 61.36559 22.07876 3037 ft 173 kts 316°
2026-04-28 09:21 61.37253 22.05955 2953 ft 162 kts 314°
2026-04-28 09:21 61.37901 22.04084 2796 ft 154 kts 315°
2026-04-28 09:21 61.38515 22.02299 2584 ft 149 kts 314°
2026-04-28 09:22 61.39104 22.00575 2380 ft 144 kts 314°
2026-04-28 09:22 61.39683 21.98889 2179 ft 143 kts 314°
2026-04-28 09:22 61.40256 21.97214 1960 ft 138 kts 314°
2026-04-28 09:22 61.40812 21.95592 1795 ft 134 kts 314°
2026-04-28 09:23 61.41347 21.94029 1582 ft 129 kts 314°
2026-04-28 09:23 61.41843 21.92574 1499 ft 113 kts 315°
2026-04-28 09:23 61.42292 21.91243 1322 ft 115 kts 315°
2026-04-28 09:23 61.42775 21.89866 1142 ft 118 kts 316°
2026-04-28 09:24 61.43264 21.88467 899 ft 123 kts 314°
2026-04-28 09:24 61.43739 21.87054 692 ft 119 kts 311°
2026-04-28 09:24 61.44234 21.85624 584 ft 121 kts 311°
2026-04-28 09:24 61.44721 21.84188 413 ft 117 kts 312°
2026-04-28 09:25 61.45190 21.82840 273 ft 114 kts 309°
2026-04-28 09:25 61.45641 21.81519 109 ft 111 kts 312°
2026-04-28 09:25 61.46068 21.80283 45 ft 84 kts 306°
2026-04-28 09:25 61.46292 21.79648 43 ft 26 kts 309°
2026-04-28 09:26 61.46392 21.79358 44 ft 24 kts 306°
2026-04-28 09:26 61.46487 21.79085 42 ft 23 kts 307°
2026-04-28 09:26 61.46574 21.78831 42 ft 16 kts 311°
2026-04-28 09:26 61.46658 21.78838 44 ft 13 kts 38°
2026-04-28 09:27 61.46784 21.79071 44 ft 12 kts 75°
2026-04-28 09:27 61.46781 21.79135 42 ft 0 kts 102°